Probability
0 0 0 0 0 0 0 0 0 0 0 0 0 0 0 0 0 0 0 0 0 0 0 0 0 0 0 0 0 0 0 0 0 0 0 0 0 0 0 0 0 0 0 0 0 0 0 0 0
0 0 0 0 0 0 0 0 0 0 0 0 0 0 0 0 0 0 0 0 0 0 0 0 0 0 0 0 0 0 0 0 0 0 0 0 0 0 0 0 0 0 0 0 0 0 0 0 0
0 0 0 0 0 0 0 0 0 0 0 0 0 0 0 0 0 0 0 0 0 0 0 0 0 0 0 0 0 0 0 0 0 0 0 0 0 0 0 0 0 0 0 0 0 0 0 0 0
0 0 0 0 0 0 0 0 0 0 0 0 0 0 0 0 0 0 0 0 0 0 0 0 0 0 0 0 0 0 0 0 0 0 0 0 0 0 0 0 0 0 0 0 0 0 0 0 0
0 0 0 0 0 0 0 0 0 0 0 0 0 0 0 0 0 0 0 0 0 0 0 0 0 0 0 0 0 0 0 0 0 0 0 0 0 0 0 0 0 0 0 0 0 0 0 0 0
0 0 0 0 0 0 0 0 0 0 0 0 0 0 0 0 0 0 0 0 0 0 0 0 0 0 0 0 0 0 0 0 0 0 0 0 0 0 0 0 0 0 0 0 0 0 0 0 0
0 0 0 0 0 0 0 0 0 0 0 0 0 0 0 0 0 0 0 0 1 0 0 0 0 0 0 0 0 0 0 0 0 0 0 0 0 1 1 1 0 0 0 0 0 0 0 0 0
0 0 0 0 0 0 0 0 0 0 0 0 0 0 0 0 0 0 0 0 0 0 0 0 0 0 0 0 0 0 0 0 0 0 0 0 0 1 1 1 0 0 0 0 0 0 0 0 0
0 0 0 0 0 0 0 0 0 0 0 0 0 0 0 0 0 0 0 0 0 0 0 0 0 0 0 0 0 0 0 0 0 0 0 0 0 0 0 0 0 0 0 0 0 0 0 0 0
0 0 0 0 0 0 0 0 0 0 0 0 1 0 0 1 0 0 0 0 0 0 0 0 0 0 0 0 0 0 0 0 0 0 0 0 0 0 0 0 0 0 0 0 0 0 0 0 0
0 0 0 0 0 0 0 0 0 0 0 0 0 0 0 0 0 0 0 0 0 0 0 0 0 0 0 0 0 0 0 0 0 0 0 0 0 0 0 0 0 0 0 0 0 0 0 0 0
0 0 0 0 0 0 0 0 0 0 0 0 0 0 0 0 0 0 0 0 0 0 0 0 0 0 0 0 0 0 0 0 0 0 0 0 0 0 0 0 0 0 0 0 0 0 0 0 0
0 0 0 0 0 0 0 0 0 0 0 0 0 0 0 0 0 0 0 0 0 0 0 0 0 0 0 0 0 0 0 0 0 0 0 0 0 0 0 0 0 0 0 0 0 0 0 0 0
0 0 0 0 0 0 0 0 0 0 0 0 0 0 0 0 0 1 1 1 0 0 0 0 0 0 0 0 0 0 0 0 0 0 0 0 0 0 0 0 0 0 0 0 0 0 0 0 0
0 0 0 0 0 0 0 0 0 0 0 0 0 0 0 0 1 2 3 2 1 0 0 0 0 0 0 0 0 0 0 0 0 0 0 0 0 0 0 0 0 0 0 0 0 0 0 0 0
0 0 0 0 0 0 0 0 0 0 0 0 0 0 0 0 0 2 4 3 1 0 0 0 0 0 0 0 0 0 0 0 0 0 0 0 0 0 0 0 0 0 0 0 0 0 0 0 0
0 0 0 0 0 0 0 0 0 0 0 0 0 0 0 0 0 1 4 4 2 0 0 0 0 0 0 0 0 0 0 0 0 0 0 0 0 0 0 0 0 0 0 0 0 0 0 0 0
0 0 0 0 0 0 0 0 0 0 0 0 0 0 0 0 0 1 3 4 3 1 0 0 0 0 0 0 0 0 0 0 0 0 0 0 0 0 0 0 0 0 0 0 0 0 0 0 0
0 0 0 0 0 0 0 0 0 0 0 0 0 0 0 0 0 1 2 3 3 1 0 0 0 0 0 0 0 0 0 0 0 0 0 0 0 0 0 0 0 0 0 0 0 0 0 0 0
0 1 1 1 0 0 0 0 0 0 0 0 0 0 0 1 1 1 1 3 2 1 0 0 0 0 0 0 0 0 0 0 0 0 0 0 0 0 0 0 0 0 0 0 0 0 0 0 0
0 1 1 1 0 0 0 0 0 0 0 0 0 0 0 1 2 2 1 2 2 1 0 0 0 0 0 0 0 0 0 0 0 0 0 0 0 0 0 0 0 0 0 0 0 0 0 0 0
0 0 0 0 0 0 0 0 0 0 0 0 0 0 0 1 2 2 2 3 3 1 0 0 0 0 0 0 0 0 0 0 0 0 0 0 0 0 0 0 0 0 0 0 0 0 0 0 0
0 0 0 0 0 0 0 0 0 0 0 0 0 0 0 1 1 1 1 3 4 3 1 0 0 0 0 0 0 0 0 0 0 0 0 0 0 0 0 0 0 0 0 0 0 0 0 0 0
0 0 0 0 0 0 0 0 0 0 0 0 0 0 1 1 1 0 1 2 4 3 2 1 0 0 0 0 0 0 0 0 0 0 0 0 0 0 0 0 0 0 0 0 0 0 0 0 0
0 0 0 0 0 0 0 0 0 0 0 0 0 1 2 2 1 0 0 1 2 2 3 2 1 0 0 0 0 0 0 0 0 0 0 0 0 0 0 0 0 0 0 0 0 0 0 0 0
0 0 0 0 0 0 0 0 0 0 0 0 0 1 2 3 1 0 0 0 1 2 3 3 1 0 0 0 0 0 0 0 0 0 0 0 0 0 0 0 0 0 0 0 0 0 0 0 0
0 0 0 0 0 0 0 0 0 0 0 0 0 1 2 3 2 0 0 0 1 2 3 3 2 1 0 0 0 0 0 0 0 0 0 0 0 0 0 0 0 0 0 0 0 0 0 0 0
0 0 0 0 0 0 0 0 0 0 0 0 0 0 1 2 1 0 0 0 1 2 2 3 3 1 0 0 0 0 0 0 0 0 0 0 0 0 0 0 0 0 0 0 0 0 0 0 0
0 0 0 0 0 0 0 0 0 0 0 0 0 0 0 0 0 0 0 0 0 0 1 2 3 2 1 0 0 0 0 0 0 0 0 0 0 0 0 0 0 0 0 0 0 0 0 0 0
0 0 0 0 0 0 0 0 0 0 0 0 0 0 0 0 0 0 0 0 0 0 1 2 3 3 2 1 0 0 0 0 0 0 0 0 0 0 0 0 0 0 0 0 0 0 0 0 0
Wind_Speed
3 3 3 3 5 5 2 1 0 1 3 2 4 6 6 4 2 2 0 3 3 2 2 4 6 7 8 8 8 9 9 10 10 11 11 11 11 10 10 9 9 9 10 10 10 10 10 9 9
2 2 4 4 5 3 1 1 1 1 3 3 4 5 6 4 3 3 1 2 3 3 2 4 7 7 7 7 8 9 9 10 10 10 10 10 10 10 9 9 9 9 9 9 9 10 10 9 9
2 3 4 4 3 2 0 1 1 2 3 2 4 4 4 3 2 2 2 4 4 3 3 4 7 7 7 7 8 9 9 10 10 10 10 9 9 9 9 8 8 8 9 9 9 9 9 9 10
3 4 4 5 3 0 1 0 1 2 3 4 4 5 3 3 1 2 4 5 5 3 3 4 7 7 8 8 8 9 9 9 10 10 9 9 9 8 8 8 8 8 8 9 9 9 9 10 10
4 4 5 3 2 2 1 1 1 2 3 4 3 4 3 3 4 5 5 5 4 3 3 3 6 7 7 7 8 8 9 9 9 9 9 8 8 8 8 8 8 8 8 8 9 9 9 10 10
4 4 4 1 2 2 2 1 2 4 3 3 3 4 2 2 4 4 5 4 4 4 3 3 5 6 6 7 7 8 8 8 8 8 8 8 8 8 8 8 8 8 8 8 9 8 9 10 10
4 4 3 1 1 2 2 2 2 3 3 2 2 4 2 1 2 4 4 4 4 4 4 3 3 3 4 6 6 6 7 7 7 8 8 7 7 7 7 8 8 8 8 9 9 8 9 9 10
4 4 3 1 1 1 2 2 2 3 2 2 2 5 4 3 3 4 4 4 4 3 3 3 3 3 3 2 4 5 6 6 6 6 6 7 7 7 7 7 7 8 8 8 8 9 9 10 10
3 5 2 1 2 1 1 2 3 2 4 3 3 2 3 7 7 5 4 3 2 2 2 2 2 2 2 2 3 3 4 5 5 4 5 5 3 3 4 5 6 7 8 8 9 9 10 10 10
4 3 1 1 2 2 1 2 1 3 3 3 3 4 6 8 7 6 5 4 2 1 1 1 2 2 2 2 3 2 3 3 3 2 3 3 2 2 4 5 7 8 9 9 10 10 9 7 4
3 3 1 0 1 1 1 1 2 4 1 2 4 6 8 7 6 6 4 3 3 2 1 1 1 1 1 1 2 1 2 2 2 2 2 2 2 2 3 3 4 5 6 5 6 6 4 4 3
3 0 1 0 1 2 2 1 2 1 1 2 5 8 8 8 7 6 5 4 2 2 1 1 1 1 1 1 1 1 1 1 1 1 1 2 2 2 2 2 2 2 2 3 3 3 4 4 4
2 1 1 2 3 2 3 2 1 1 1 4 7 7 8 8 6 4 4 3 3 2 2 1 2 2 1 1 0 1 1 1 0 1 1 2 1 1 1 1 2 2 2 3 3 3 4 4 4
1 2 2 2 2 2 3 1 2 1 2 5 6 6 6 6 6 4 4 4 3 3 2 2 2 2 2 1 1 1 1 1 1 1 1 1 2 2 2 2 2 2 2 2 3 3 3 3 3
2 3 3 2 1 1 2 2 1 1 3 4 4 4 4 4 5 5 5 5 4 3 3 2 2 2 2 2 1 1 1 1 1 1 1 1 2 2 2 2 2 2 2 3 3 4 3 3 4
3 3 2 3 1 0 2 2 3 1 4 3 3 2 3 3 4 4 5 5 4 4 3 3 2 2 2 2 1 1 1 1 1 1 1 2 2 3 3 2 2 2 2 3 3 3 3 3 3
3 1 1 3 1 1 2 3 3 1 3 3 3 3 3 3 3 4 5 5 5 5 4 3 2 3 2 2 2 2 2 2 1 1 1 1 2 3 3 2 2 2 3 2 3 3 3 3 3
2 1 1 2 2 1 1 4 3 1 3 3 3 2 3 4 5 4 5 5 5 4 4 4 3 2 3 3 2 2 2 2 1 1 1 2 2 3 3 2 3 3 3 2 3 3 3 2 2
3 2 2 3 1 1 3 4 5 3 3 3 3 3 4 6 4 2 3 4 5 5 4 4 4 3 3 2 2 2 1 1 1 1 1 2 2 2 3 3 3 3 3 3 3 3 3 2 2
2 1 2 2 1 1 3 5 4 3 4 5 5 5 6 5 3 2 2 3 5 5 5 4 4 4 3 2 2 2 2 1 0 1 1 1 2 2 3 4 3 3 3 3 3 3 2 1 1
2 3 3 2 2 2 1 4 3 3 3 3 4 4 5 6 6 4 4 4 4 5 6 5 5 4 4 3 3 2 2 2 2 1 1 1 1 2 2 3 3 3 3 3 2 3 4 3 1
3 3 3 2 1 2 0 4 5 3 4 5 5 5 5 5 5 4 4 5 6 6 5 5 5 4 4 4 4 4 3 2 2 1 0 1 1 2 3 3 3 3 2 3 2 2 2 3 2
3 0 1 1 2 1 1 2 8 2 4 7 7 7 6 6 6 6 6 7 6 5 5 5 5 4 4 4 5 4 3 2 1 1 1 1 1 1 2 3 3 3 2 2 2 2 2 2 3
3 4 4 4 3 1 3 3 7 4 6 5 6 7 7 7 6 6 5 5 5 4 5 5 5 4 4 4 4 5 5 4 3 2 2 1 1 1 1 2 2 2 2 2 2 2 3 2 2
3 5 4 4 3 4 2 3 8 7 6 6 7 7 7 6 6 6 6 6 6 6 6 5 6 5 4 4 5 5 5 5 5 4 3 2 1 1 1 2 2 2 2 2 3 3 2 2 3
2 6 5 3 3 4 2 5 8 5 4 4 5 4 4 5 6 7 7 7 7 7 7 6 6 5 5 5 5 4 5 3 3 3 3 3 2 2 2 2 2 2 2 3 3 2 2 2 2
4 2 4 4 1 2 5 6 8 3 3 3 2 2 4 5 6 6 6 6 6 7 7 8 7 5 5 5 4 4 4 4 3 3 3 2 2 2 3 2 2 2 3 3 3 2 2 2 2
3 6 4 4 2 3 5 4 5 5 5 4 2 3 3 3 4 5 5 5 5 6 6 7 7 7 6 6 5 4 4 4 4 3 3 3 3 3 4 3 3 2 2 3 3 3 2 3 2
3 3 3 3 3 3 3 7 6 6 5 4 4 3 3 3 4 5 5 5 5 5 6 6 6 5 5 5 4 4 4 4 4 3 4 4 3 3 4 4 3 3 3 3 3 3 3 3 2
3 5 6 4 3 3 3 9 5 4 4 3 4 3 3 3 3 3 4 4 4 5 5 6 6 6 5 5 5 5 4 4 4 4 3 3 3 3 3 4 4 3 3 3 4 4 3 3 3
Wind_Direction
71 73 74 57 54 52 48 338 344 13 48 47 66 75 87 72 76 121 63 122 118 121 125 125 120 117 115 112 109 110 110 107 106 105 106 105 103 100 97 93 90 86 83 79 77 76 75 72 71
93 77 54 58 75 70 0 341 45 67 134 132 72 65 72 67 62 92 99 114 117 118 111 117 116 115 114 112 112 112 110 107 107 106 106 105 104 101 96 93 90 87 84 79 76 75 72 71 73
98 57 74 66 79 129 151 350 100 77 98 97 77 57 71 76 94 126 150 128 109 102 102 122 123 119 116 114 113 112 111 110 110 108 106 103 100 98 95 92 89 86 83 79 75 74 71 72 76
76 45 54 67 70 298 240 249 127 104 62 52 88 71 61 38 119 144 131 125 113 100 97 125 127 124 119 117 114 111 111 110 109 107 103 99 97 93 89 89 88 86 82 79 76 73 71 73 76
61 72 61 52 14 338 337 350 86 88 62 49 77 87 53 13 79 110 118 117 115 101 92 115 124 126 123 121 117 116 114 111 109 107 102 98 94 89 85 84 86 84 81 80 76 73 72 75 76
56 64 78 69 350 343 358 23 73 81 86 71 77 90 63 54 93 111 109 105 104 102 90 92 121 129 123 121 122 119 117 115 110 105 98 91 87 83 83 84 83 80 79 79 76 73 75 76 74
97 88 102 112 7 354 11 42 88 100 95 90 102 100 99 96 103 111 103 98 92 89 81 62 56 79 103 112 117 118 117 112 108 104 98 89 82 78 78 80 81 79 78 76 74 73 75 74 74
113 97 84 89 123 312 346 39 63 86 100 84 91 128 162 177 126 102 92 86 86 82 76 64 54 49 51 68 104 109 112 106 101 100 92 81 71 64 62 63 74 79 78 75 73 71 72 74 72
82 78 100 185 173 231 11 58 36 52 88 70 59 101 136 131 124 114 103 86 90 95 75 72 67 55 47 47 70 74 82 74 69 70 71 66 51 43 44 47 67 71 72 69 67 70 73 72 66
78 103 188 214 178 169 85 80 97 78 71 69 69 74 108 127 136 139 142 148 154 154 109 80 81 72 54 48 55 47 47 50 48 50 56 54 46 34 44 43 58 62 62 61 63 65 67 64 54
99 142 181 34 121 124 98 63 74 118 123 194 166 146 136 143 152 158 164 165 174 167 147 127 129 96 70 49 64 53 45 45 43 50 60 63 52 37 43 45 44 48 54 49 51 53 52 59 58
100 76 159 130 101 101 110 96 70 109 236 212 162 150 152 161 173 177 177 179 161 141 168 164 144 126 103 81 86 97 85 75 72 62 87 88 67 47 43 52 51 51 56 57 52 58 59 63 60
87 63 42 72 80 92 99 86 101 12 12 97 123 140 161 171 182 185 175 166 151 161 186 184 161 154 142 119 130 109 107 106 98 86 121 127 106 88 76 62 59 61 67 72 67 68 69 64 57
109 82 44 39 60 54 93 47 76 318 94 109 134 156 171 179 182 175 172 171 172 181 189 184 166 154 144 152 156 132 126 120 91 85 126 131 124 121 105 80 67 68 76 80 81 79 76 66 63
86 64 27 15 46 85 95 18 307 222 119 130 156 172 177 187 181 190 190 180 180 185 176 172 171 143 144 152 158 141 138 125 115 108 118 127 128 124 114 102 87 84 89 90 85 79 73 73 68
62 56 10 313 28 152 116 271 280 154 142 165 183 196 208 211 203 203 194 179 177 176 169 175 171 149 151 138 125 112 110 108 104 96 106 125 129 123 112 110 105 104 96 95 97 90 80 69 65
41 58 280 306 282 153 149 245 270 144 162 197 210 215 223 235 236 220 199 185 180 180 173 170 158 158 151 125 103 90 85 84 82 88 100 115 123 123 118 115 113 111 100 98 108 89 95 90 78
208 200 248 268 284 140 213 255 273 212 189 218 231 227 230 234 239 221 201 190 181 175 170 167 158 150 129 108 90 74 68 64 65 77 87 104 119 121 115 112 113 113 104 94 98 101 85 87 87
158 170 251 267 239 173 236 260 262 226 207 231 239 233 235 244 250 225 199 185 171 165 164 167 165 154 130 117 119 113 108 84 62 63 75 99 113 118 118 120 116 115 118 122 121 111 96 76 81
151 193 263 301 307 201 250 271 262 225 217 217 221 227 233 244 255 230 196 180 178 172 168 171 173 166 162 152 144 137 133 125 103 44 63 90 125 135 138 134 132 126 119 115 126 127 117 99 80
211 199 216 241 346 10 321 305 277 257 237 227 222 222 230 227 226 216 199 190 182 178 179 184 182 176 170 148 119 95 75 60 51 39 30 37 118 133 131 133 130 134 133 141 152 147 140 142 74
252 228 198 194 108 300 14 290 284 266 267 246 236 226 229 231 220 204 196 196 196 193 184 179 176 176 174 158 151 147 148 157 184 177 168 79 100 120 123 129 127 132 133 143 155 139 141 138 141
219 182 135 155 156 321 331 245 285 296 266 256 241 232 227 222 214 205 202 202 200 189 180 178 170 174 175 170 164 154 146 157 137 113 109 87 71 99 122 132 128 132 134 141 136 128 132 135 146
143 66 52 48 74 298 236 208 278 243 233 252 241 230 223 217 212 207 205 197 192 180 175 170 170 177 176 170 166 166 160 154 144 144 139 128 80 72 109 126 127 134 139 145 144 137 135 133 130
89 84 31 3 3 265 259 224 255 253 239 231 239 234 221 209 203 200 195 193 186 179 177 174 172 178 179 175 177 177 171 167 171 173 168 162 154 152 162 132 133 141 147 143 132 129 136 136 131
162 139 154 201 236 281 300 246 259 267 269 254 249 236 212 201 200 202 200 197 191 185 179 177 179 179 178 183 187 180 174 170 178 179 174 178 184 179 160 143 143 141 134 132 125 117 130 124 123
142 170 167 141 195 276 279 284 297 285 287 275 267 239 220 211 206 207 203 196 192 187 184 182 182 178 182 189 183 181 178 177 182 181 173 174 177 160 142 144 141 135 130 129 128 119 125 119 113
146 146 106 122 165 268 292 282 263 281 272 277 277 259 253 238 219 212 205 200 193 186 181 178 181 183 184 182 182 183 184 186 181 171 174 173 168 155 145 145 143 139 128 126 120 118 123 116 110
117 117 122 128 160 173 270 273 237 242 255 257 264 266 256 241 233 215 204 198 188 178 176 177 180 178 177 178 181 181 183 176 171 175 181 174 164 159 156 155 150 154 147 138 129 129 131 126 112
185 180 155 162 215 185 207 268 278 258 258 257 271 277 267 243 236 219 195 182 180 182 183 182 179 181 184 179 180 182 173 163 170 176 179 161 154 154 157 154 154 158 153 149 149 147 138 134 130